Flag for U.S.A. Weather past 2 weeks in Augusta, Georgia, U.S.A.

Now
91 °F

Sunny.


Feels Like: 98 °F
Forecast: 72 / 97 °F
Wind: 6 mph from Southwest

Location: Daniel Field

Current Time: Aug 4, 2015 at 2:10:29 PM

Latest Report: Aug 4, 2015 at 12:53 PM


Visibility: 10 mi

Pressure: 29.98 "Hg

Humidity: 52%

Dew point: 71 °F

Location of AugustaLocation

Historic Weather in Augusta — Graph

°F

Augusta temperature yesterday

Maximum temperature yesterday: 92 °F (at 3:53 PM)
Minimum temperature yesterday: 75 °F (at 3:53 AM)
Average temperature yesterday: 81 °F

Past Weeks' High & Low Weather Summary

 TemperatureHumidityPressure
High102 °F (Jul 21, 4:53 PM)94% (Aug 2, 8:59 AM)30.02 "Hg (Aug 2, 8:59 AM)
Low73 °F (Jul 26, 6:53 AM)29% (Jul 22, 3:53 PM)29.75 "Hg (Jul 21, 4:53 PM)
Average85 °F64%29.91 "Hg
* Reported Jul 20 12:53 PM — Aug 4 12:53 PM, Augusta, Weather by CustomWeather, © 2015

Note: Actual official high and low records may vary slightly from our data, if they occured in-between our weather recording intervals... More about our weather records

Advertising

Augusta weather history for previous 24 hours

 ConditionsComfort  
Time TempWeatherWind HumidityBarometerVisibility
12:53 PM
Tue, Aug 4
91 °FSunny.6 mph52%29.98 "Hg10 mi
11:53 AM88 °FSunny.No wind57%29.99 "Hg10 mi
10:53 AM85 °FSunny.5 mph65%30.01 "Hg10 mi
9:53 AM83 °FSunny.6 mph72%30.00 "Hg10 mi
8:53 AM79 °FSunny.6 mph79%29.99 "Hg10 mi
8:00 AM75 °FPartly sunny.3 mph90%29.99 "Hg10 mi
6:53 AM74 °FClear.7 mph91%29.95 "Hg9 mi
5:53 AM74 °FClear.6 mph91%29.94 "Hg10 mi
4:53 AM75 °FClear.3 mph90%29.93 "Hg10 mi
3:53 AM75 °FClear.3 mph90%29.91 "Hg10 mi
2:53 AM76 °FClear.5 mph88%29.91 "Hg10 mi
1:53 AM77 °FClear.No wind85%29.92 "Hg10 mi
12:53 AM77 °FClear.3 mph85%29.94 "Hg10 mi
11:53 PM
Mon, Aug 3
78 °FClear.3 mph82%29.94 "Hg10 mi
10:53 PM78 °FClear.3 mph82%29.92 "Hg10 mi
9:53 PM79 °FClear.5 mph79%29.91 "Hg10 mi
8:53 PM81 °FSunny.7 mph74%29.89 "Hg10 mi
7:53 PM84 °FSunny.8 mph67%29.88 "Hg10 mi
6:53 PM86 °FPassing clouds.9 mph67%29.88 "Hg10 mi
5:53 PM84 °FLight rain. Scattered clouds.6 mph77%29.89 "Hg10 mi
4:53 PM92 °FScattered clouds.12 mph51%29.87 "Hg10 mi
3:53 PM92 °FPartly sunny.5 mph44%29.87 "Hg10 mi
2:53 PM91 °FPassing clouds.No wind50%29.88 "Hg10 mi
Weather by CustomWeather, © 2015

See weather overviewHow to use our weather pages